Location: Unspecified
(48.2082°N, 0.0000°E)
Time: 15:48:26
(UTC+00:00)

Vanguard 1 - Pass Details

Date: 28 June 2019
Orbit: 653 x 3830 km, 34.3° (Epoch: 20 July)

Event Time Altitude Azimuth Distance (km) Brightness Sun altitude
Rises 00:39:54 0° 226° (SW) 7,961 - -18.0°
Reaches altitude 10° 00:46:01 10° 220° (SW) 6,894 - -17.8°
Exits shadow 00:47:12 12° 218° (SW) 6,687 13.8 -17.8°
Maximum altitude 01:05:19 39° 161° (SSE) 4,072 12.7 -17.1°
Drops below altitude 10° 01:18:26 10° 99° (E) 4,787 13.7 -16.5°
Sets 01:21:45 0° 92° (E) 5,414 14.1 -16.4°
